Moscow Vnukovo, Russia

9:03 AM MSK on June 22, 2018 (GMT +0300)
Vnukovo

Weather History for UUWW - May, 2008

Change the Weather History Date:

Tuesday, May 13, 2008

  Actual Average Record
Temperature  
Mean Temperature 52 °F -  
Max Temperature 64 °F 59 °F 80 °F (2013)
Min Temperature 41 °F 41 °F 30 °F (2000)
Degree Days  
Heating Degree Days 12    
Growing Degree Days 2 (Base 50)    
Moisture  
Dew Point 43 °F    
Average Humidity 69    
Maximum Humidity 87    
Minimum Humidity 45    
Precipitation  
Precipitation 0.00 in - - ()
Sea Level Pressure  
Sea Level Pressure 29.78 in    
Wind  
Wind Speed 7 mph ()    
Max Wind Speed 20 mph    
Max Gust Speed -    
Visibility 6.2 miles    
Events Rain    
Averages and records for this station are not official NWS values.
T = Trace of Precipitation, MM = Missing Value Source: Averaged Metar Reports

Daily Weather History Graph

Daily Weather History Graph

Search for Another Location

Airport or City:

Astronomy

May. 13, 2008 Rise Set
Actual Time 5:23 AM MSD 9:32 PM MSD
Civil Twilight 4:34 AM MSD 10:21 PM MSD
Nautical Twilight 3:22 AM MSD 11:34 PM MSD
Astronomical Twilight 1:59 AM MSD 12:54 AM MSD
Moon 1:59 PM MSD (5/13) 3:21 AM MSD (5/13)
Length of Visible Light 17h 46m
Length of Day
16h 09m
Waxing Gibbous, 62% of the Moon is Illuminated
May 13
Waxing Gibbous
May 20
Full
May 28
Last Quarter
Jun 3
New
Jun 10
First Quarter

Hourly Weather History & Observations

Time (MSD) Temp. Windchill Dew Point Humidity Pressure Visibility Wind Dir Wind Speed Gust Speed Precip Events Conditions
12:00 AM 55.4 °F - 42.8 °F 63% 29.89 in - SW 4.5 mph - N/A   Clear
12:30 AM 55.4 °F - 42.8 °F 63% 29.89 in - SW 4.5 mph - N/A   Clear
1:00 AM 55.4 °F - 42.8 °F 63% 29.89 in - Variable 4.5 mph - N/A   Clear
1:30 AM 53.6 °F - 42.8 °F 67% 29.89 in - Variable 4.5 mph - N/A   Clear
2:00 AM 53.6 °F - 42.8 °F 67% 29.86 in - Variable 4.5 mph - N/A   Clear
2:30 AM 53.6 °F - 42.8 °F 67% 29.86 in - Variable 4.5 mph - N/A   Clear
3:00 AM 51.8 °F - 42.8 °F 71% 29.86 in - SW 4.5 mph - N/A   Clear
3:30 AM 51.8 °F - 42.8 °F 71% 29.86 in - Variable 4.5 mph - N/A   Clear
4:00 AM 51.8 °F - 42.8 °F 71% 29.83 in - Variable 4.5 mph - N/A   Clear
4:30 AM 50.0 °F - 42.8 °F 76% 29.83 in - Variable 2.2 mph - N/A   Clear
5:00 AM 48.2 °F - 41.0 °F 76% 29.83 in - Variable 4.5 mph - N/A   Clear
5:30 AM 51.8 °F - 42.8 °F 71% 29.83 in 6.2 mi Variable 4.5 mph - N/A   Mostly Cloudy
6:00 AM 50.0 °F - 44.6 °F 82% 29.80 in 6.2 mi Calm Calm - N/A   Mostly Cloudy
6:30 AM 50.0 °F - 44.6 °F 82% 29.80 in 6.2 mi Calm Calm - N/A   Mostly Cloudy
7:00 AM 51.8 °F - 44.6 °F 76% 29.80 in 6.2 mi Variable 4.5 mph - N/A   Mostly Cloudy
7:30 AM 51.8 °F - 44.6 °F 76% 29.80 in 6.2 mi South 4.5 mph - N/A   Mostly Cloudy
8:00 AM 55.4 °F - 44.6 °F 67% 29.80 in 6.2 mi SSW 6.7 mph - N/A   Mostly Cloudy
8:30 AM 55.4 °F - 46.4 °F 72% 29.80 in 6.2 mi WSW 6.7 mph - N/A   Mostly Cloudy
9:00 AM 57.2 °F - 46.4 °F 67% 29.77 in 6.2 mi WSW 4.5 mph - N/A   Mostly Cloudy
9:30 AM 60.8 °F - 46.4 °F 59% 29.77 in 6.2 mi West 8.9 mph - N/A   Mostly Cloudy
10:00 AM 59.0 °F - 46.4 °F 63% 29.77 in 6.2 mi West 11.2 mph - N/A   Mostly Cloudy
10:30 AM 53.6 °F - 48.2 °F 82% 29.77 in 5.0 mi WSW 8.9 mph - N/A Rain Light Rain Showers
11:00 AM 53.6 °F - 48.2 °F 82% 29.77 in 6.2 mi South 8.9 mph - N/A Rain Light Rain Showers
11:30 AM 57.2 °F - 50.0 °F 77% 29.77 in 6.2 mi SSW 4.5 mph - N/A Rain Light Rain Showers
12:00 PM 60.8 °F - 50.0 °F 68% 29.74 in 6.2 mi SSW 8.9 mph - N/A   Mostly Cloudy
12:30 PM 62.6 °F - 48.2 °F 59% 29.74 in 6.2 mi SSW 6.7 mph - N/A   Mostly Cloudy
1:00 PM 62.6 °F - 48.2 °F 59% 29.71 in 6.2 mi SSW 8.9 mph - N/A   Mostly Cloudy
1:30 PM 62.6 °F - 46.4 °F 55% 29.71 in 6.2 mi SW 8.9 mph - N/A   Mostly Cloudy
2:00 PM 64.4 °F - 46.4 °F 52% 29.71 in 6.2 mi SSW 6.7 mph - N/A   Mostly Cloudy
2:30 PM 64.4 °F - 42.8 °F 45% 29.71 in 6.2 mi West 15.7 mph - N/A   Mostly Cloudy
3:00 PM 62.6 °F - 42.8 °F 48% 29.71 in 6.2 mi WNW 15.7 mph - N/A   Mostly Cloudy
3:30 PM 62.6 °F - 41.0 °F 45% 29.71 in 6.2 mi WNW 13.4 mph - N/A   Mostly Cloudy
4:00 PM 62.6 °F - 44.6 °F 52% 29.71 in 6.2 mi NW 15.7 mph - N/A   Mostly Cloudy
4:30 PM 62.6 °F - 44.6 °F 52% 29.71 in 6.2 mi NW 15.7 mph - N/A   Mostly Cloudy
5:00 PM 60.8 °F - 44.6 °F 55% 29.71 in 6.2 mi NNW 15.7 mph - N/A   Mostly Cloudy
5:30 PM 57.2 °F - 44.6 °F 63% 29.71 in 6.2 mi NNW 20.1 mph - N/A   Mostly Cloudy
6:00 PM 55.4 °F - 42.8 °F 63% 29.71 in 6.2 mi NNW 20.1 mph - N/A   Mostly Cloudy
6:30 PM 51.8 °F - 42.8 °F 71% 29.74 in 6.2 mi NNW 17.9 mph - N/A   Mostly Cloudy
7:00 PM 50.0 °F - 41.0 °F 71% 29.74 in 6.2 mi NNW 17.9 mph - N/A   Mostly Cloudy
7:30 PM 48.2 °F - 41.0 °F 76% 29.74 in 6.2 mi North 15.7 mph - N/A   Mostly Cloudy
8:00 PM 46.4 °F 39.9 °F 41.0 °F 81% 29.74 in 6.2 mi NNW 15.7 mph - N/A   Mostly Cloudy
8:30 PM 42.8 °F 34.7 °F 39.2 °F 87% 29.74 in 6.2 mi North 17.9 mph - N/A   Overcast
9:00 PM 42.8 °F 35.2 °F 39.2 °F 87% 29.77 in 6.2 mi North 15.7 mph - N/A Rain Light Rain Showers
9:30 PM 42.8 °F 35.2 °F 39.2 °F 87% 29.77 in 6.2 mi North 15.7 mph - N/A   Overcast
10:00 PM 41.0 °F 32.9 °F 37.4 °F 87% 29.77 in 6.2 mi North 15.7 mph - N/A   Overcast
10:30 PM 41.0 °F 33.6 °F 37.4 °F 87% 29.77 in 6.2 mi NNW 13.4 mph - N/A   Overcast
11:00 PM 41.0 °F 32.9 °F 37.4 °F 87% 29.77 in 6.2 mi North 15.7 mph - N/A   Overcast
11:30 PM 41.0 °F 33.6 °F 35.6 °F 81% 29.77 in 6.2 mi North 13.4 mph - N/A   Overcast